Back to catalog

STARLINK-37970

AliveCommunicationsSSO
NORAD 69706·PAYLOAD·🇺🇸 United States

Launched Jun 28, 2026 from Vandenberg Space Force Base

Loading…

Next Passes (next 24 hours)

TLE

FreshSource: CelesTrak SupGP

Epoch: Sep 14, 2026, 14:48 UTC

1 69706C 26147C   26257.61715278  .00002833  00000+0  87919-4 0  2577
2 69706  97.2844 293.9920 0001178  98.0812  51.6508 15.33445115    11

Track STARLINK-37970 in real time with AllMySat

Download on the App Store